Back to Top

Language: 

My Weather Underground Personal Weather Station Historical Data with Graphs...

Delerius Weather Station Historical Data
Daily Summary for October 17, 2017 Units:  English    Metric   Both
« Previous Day
Next Day »
Daily Weekly Monthly Yearly Custom
  High: Low: Average:
Temperature: 60.1 °F 48.7 °F 54.8 °F
Dew Point: 46.7 °F 42.3 °F 45 °F
Humidity: 84 % 55 % 70 %
Wind Speed: 24.0 mph 0.0 mph 10.9 mph
Wind Gust: 51.0 mph - -
Wind:- - WSW
Pressure: 30.00 in 29.77 in -
Precipitation: 0.00 in    
Historical Graphs
 
 
Tabular Data for October 17, 2017
Time Temperature Dew Point Pressure Wind Wind Speed Wind Gust Humidity Rainfall Rate (Hourly) solar Conditions
00:03 57.6 °F 45.5 °F 29.77 in SW 20.0 mph 43.0 mph 64 % 0.00 in 0 W/m2
00:08 57.6 °F 45.5 °F 29.77 in WSW 24.0 mph 43.0 mph 64 % 0.00 in 0 W/m2
00:13 57.6 °F 45.5 °F 29.77 in SW 23.0 mph 43.0 mph 64 % 0.00 in 0 W/m2
00:18 57.6 °F 45.5 °F 29.77 in SW 24.0 mph 43.0 mph 64 % 0.00 in 0 W/m2
00:23 57.6 °F 45.5 °F 29.77 in SW 24.0 mph 43.0 mph 64 % 0.00 in 0 W/m2
00:28 57.4 °F 45.3 °F 29.78 in SW 24.0 mph 51.0 mph 64 % 0.00 in 0 W/m2
00:33 57.4 °F 45.3 °F 29.78 in SW 22.0 mph 51.0 mph 64 % 0.00 in 0 W/m2
00:38 57.2 °F 45.5 °F 29.78 in SW 20.0 mph 34.0 mph 65 % 0.00 in 0 W/m2
00:43 57.2 °F 45.5 °F 29.78 in SW 22.0 mph 39.0 mph 65 % 0.00 in 0 W/m2
00:48 57.0 °F 45.8 °F 29.78 in SW 20.0 mph 39.0 mph 66 % 0.00 in 0 W/m2
00:53 57.0 °F 45.8 °F 29.79 in SW 19.0 mph 33.0 mph 66 % 0.00 in 0 W/m2
00:58 57.0 °F 45.8 °F 29.79 in SW 18.0 mph 33.0 mph 66 % 0.00 in 0 W/m2
00:59 57.0 °F 45.8 °F 29.78 in SW 18.0 mph 33.0 mph 66 % 0.00 in 0 W/m2
01:04 57.0 °F 45.8 °F 29.80 in SW 18.0 mph 37.0 mph 66 % 0.00 in 0 W/m2
01:09 57.0 °F 45.8 °F 29.80 in SW 18.0 mph 43.0 mph 66 % 0.00 in 0 W/m2
01:14 56.8 °F 45.6 °F 29.80 in SW 18.0 mph 43.0 mph 66 % 0.00 in 0 W/m2
01:19 56.8 °F 45.6 °F 29.79 in SW 18.0 mph 33.0 mph 66 % 0.00 in 0 W/m2
01:24 56.8 °F 45.6 °F 29.79 in WSW 19.0 mph 35.0 mph 66 % 0.00 in 0 W/m2
01:29 56.7 °F 45.4 °F 29.79 in WSW 21.0 mph 35.0 mph 66 % 0.00 in 0 W/m2
01:34 56.7 °F 45.8 °F 29.80 in WSW 19.0 mph 30.0 mph 67 % 0.00 in 0 W/m2
01:39 56.7 °F 45.8 °F 29.80 in SW 19.0 mph 44.0 mph 67 % 0.00 in 0 W/m2
01:44 56.5 °F 45.7 °F 29.81 in SW 18.0 mph 44.0 mph 67 % 0.00 in 0 W/m2
01:49 56.5 °F 46.0 °F 29.81 in WSW 17.0 mph 34.0 mph 68 % 0.00 in 0 W/m2
01:54 56.5 °F 46.0 °F 29.81 in WSW 17.0 mph 31.0 mph 68 % 0.00 in 0 W/m2
01:59 56.3 °F 45.9 °F 29.81 in WSW 16.0 mph 31.0 mph 68 % 0.00 in 0 W/m2
02:05 56.3 °F 45.9 °F 29.81 in WSW 17.0 mph 36.0 mph 68 % 0.00 in 0 W/m2
02:10 56.3 °F 45.9 °F 29.81 in WSW 17.0 mph 36.0 mph 68 % 0.00 in 0 W/m2
02:15 56.3 °F 45.9 °F 29.82 in WSW 14.0 mph 24.0 mph 68 % 0.00 in 0 W/m2
02:20 56.1 °F 45.3 °F 29.82 in SW 12.0 mph 26.0 mph 67 % 0.00 in 0 W/m2
02:25 56.1 °F 45.7 °F 29.82 in SW 14.0 mph 27.0 mph 68 % 0.00 in 0 W/m2
02:30 56.1 °F 45.7 °F 29.83 in SW 16.0 mph 27.0 mph 68 % 0.00 in 0 W/m2
02:35 55.9 °F 45.9 °F 29.83 in SW 17.0 mph 30.0 mph 69 % 0.00 in 0 W/m2
02:40 55.9 °F 45.9 °F 29.83 in SW 17.0 mph 30.0 mph 69 % 0.00 in 0 W/m2
02:45 55.9 °F 45.9 °F 29.83 in SW 15.0 mph 33.0 mph 69 % 0.00 in 0 W/m2
02:50 55.8 °F 46.1 °F 29.83 in SW 16.0 mph 33.0 mph 70 % 0.00 in 0 W/m2
02:55 55.8 °F 46.1 °F 29.83 in SW 16.0 mph 26.0 mph 70 % 0.00 in 0 W/m2
02:56 55.8 °F 46.1 °F 29.83 in SW 15.0 mph 26.0 mph 70 % 0.00 in 0 W/m2
03:01 55.6 °F 45.9 °F 29.83 in SW 13.0 mph 25.0 mph 70 % 0.00 in 0 W/m2
03:06 55.6 °F 45.9 °F 29.83 in WSW 12.0 mph 24.0 mph 70 % 0.00 in 0 W/m2
03:11 55.6 °F 45.9 °F 29.83 in WSW 13.0 mph 29.0 mph 70 % 0.00 in 0 W/m2
03:16 55.6 °F 45.9 °F 29.83 in SW 14.0 mph 29.0 mph 70 % 0.00 in 0 W/m2
03:21 55.8 °F 46.1 °F 29.83 in SW 14.0 mph 25.0 mph 70 % 0.00 in 0 W/m2
03:26 55.8 °F 46.1 °F 29.84 in SW 13.0 mph 24.0 mph 70 % 0.00 in 0 W/m2
03:31 55.8 °F 46.1 °F 29.84 in SW 13.0 mph 24.0 mph 70 % 0.00 in 0 W/m2
03:36 55.6 °F 45.9 °F 29.84 in SW 12.0 mph 23.0 mph 70 % 0.00 in 0 W/m2
03:41 55.6 °F 46.3 °F 29.84 in SW 11.0 mph 23.0 mph 71 % 0.00 in 0 W/m2
03:46 55.6 °F 45.9 °F 29.84 in SW 12.0 mph 24.0 mph 70 % 0.00 in 0 W/m2
03:51 55.6 °F 45.9 °F 29.84 in SW 12.0 mph 24.0 mph 70 % 0.00 in 0 W/m2
03:56 55.6 °F 45.9 °F 29.85 in SW 10.0 mph 21.0 mph 70 % 0.00 in 0 W/m2
04:01 55.6 °F 45.9 °F 29.85 in SW 11.0 mph 24.0 mph 70 % 0.00 in 0 W/m2
04:06 55.6 °F 45.9 °F 29.85 in SW 12.0 mph 24.0 mph 70 % 0.00 in 0 W/m2
04:13 55.6 °F 45.9 °F 29.86 in SW 11.0 mph 23.0 mph 70 % 0.00 in 0 W/m2
04:19 55.6 °F 45.9 °F 29.86 in SW 10.0 mph 21.0 mph 70 % 0.00 in 0 W/m2
04:21 55.6 °F 45.9 °F 29.86 in SW 10.0 mph 18.0 mph 70 % 0.00 in 0 W/m2
04:26 55.6 °F 46.3 °F 29.86 in SW 9.0 mph 18.0 mph 71 % 0.00 in 0 W/m2
04:27 55.6 °F 46.3 °F 29.86 in SW 9.0 mph 18.0 mph 71 % 0.00 in 0 W/m2
04:29 55.4 °F 46.2 °F 29.86 in SW 9.0 mph 18.0 mph 71 % 0.00 in 0 W/m2
04:33 55.4 °F 46.2 °F 29.86 in SW 8.0 mph 15.0 mph 71 % 0.00 in 0 W/m2
04:38 55.4 °F 45.8 °F 29.86 in SW 8.0 mph 15.0 mph 70 % 0.00 in 0 W/m2
04:43 55.4 °F 46.2 °F 29.86 in SW 8.0 mph 16.0 mph 71 % 0.00 in 0 W/m2
04:48 55.4 °F 46.2 °F 29.86 in SW 9.0 mph 16.0 mph 71 % 0.00 in 0 W/m2
04:53 55.2 °F 46.0 °F 29.86 in SW 8.0 mph 14.0 mph 71 % 0.00 in 0 W/m2
04:58 55.2 °F 46.0 °F 29.87 in SW 8.0 mph 15.0 mph 71 % 0.00 in 0 W/m2
05:03 55.2 °F 46.0 °F 29.87 in SW 7.0 mph 16.0 mph 71 % 0.00 in 0 W/m2
05:08 55.2 °F 46.0 °F 29.87 in WSW 9.0 mph 16.0 mph 71 % 0.00 in 0 W/m2
05:13 55.2 °F 46.0 °F 29.87 in WSW 11.0 mph 23.0 mph 71 % 0.00 in 0 W/m2
05:18 55.2 °F 46.0 °F 29.87 in SW 9.0 mph 23.0 mph 71 % 0.00 in 0 W/m2
05:23 55.2 °F 46.0 °F 29.87 in SW 7.0 mph 15.0 mph 71 % 0.00 in 0 W/m2
05:28 55.2 °F 46.0 °F 29.87 in WSW 8.0 mph 23.0 mph 71 % 0.00 in 0 W/m2
05:33 55.2 °F 46.0 °F 29.87 in WSW 10.0 mph 23.0 mph 71 % 0.00 in 0 W/m2
05:38 55.0 °F 46.2 °F 29.87 in WSW 10.0 mph 20.0 mph 72 % 0.00 in 0 W/m2
05:43 55.0 °F 46.2 °F 29.88 in WSW 11.0 mph 20.0 mph 72 % 0.00 in 0 W/m2
05:48 55.0 °F 46.2 °F 29.88 in WSW 10.0 mph 19.0 mph 72 % 0.00 in 0 W/m2
05:53 55.0 °F 45.8 °F 29.88 in SW 11.0 mph 22.0 mph 71 % 0.00 in 0 W/m2
05:59 55.0 °F 45.4 °F 29.88 in WSW 12.0 mph 24.0 mph 70 % 0.00 in 0 W/m2
06:04 55.2 °F 45.6 °F 29.88 in WSW 12.0 mph 24.0 mph 70 % 0.00 in 0 W/m2
06:09 55.2 °F 45.6 °F 29.88 in WSW 12.0 mph 24.0 mph 70 % 0.00 in 0 W/m2
06:14 55.0 °F 45.4 °F 29.89 in WSW 13.0 mph 24.0 mph 70 % 0.00 in 0 W/m2
06:19 55.0 °F 45.8 °F 29.88 in WSW 12.0 mph 21.0 mph 71 % 0.00 in 0 W/m2
06:24 54.9 °F 46.0 °F 29.88 in SW 11.0 mph 20.0 mph 72 % 0.00 in 0 W/m2
06:29 54.7 °F 45.8 °F 29.89 in WSW 12.0 mph 23.0 mph 72 % 0.00 in 0 W/m2
06:34 54.9 °F 45.6 °F 29.89 in WSW 14.0 mph 23.0 mph 71 % 0.00 in 0 W/m2
06:39 54.9 °F 45.6 °F 29.89 in WSW 16.0 mph 25.0 mph 71 % 0.00 in 0 W/m2
06:44 54.9 °F 45.6 °F 29.88 in WSW 15.0 mph 25.0 mph 71 % 0.00 in 0 W/m2
06:49 54.7 °F 45.5 °F 29.89 in WSW 14.0 mph 23.0 mph 71 % 0.00 in 0 W/m2
06:54 54.5 °F 45.3 °F 29.88 in WSW 13.0 mph 23.0 mph 71 % 0.00 in 0 W/m2
06:59 54.3 °F 45.1 °F 29.88 in WSW 13.0 mph 23.0 mph 71 % 0.00 in 0 W/m2
07:04 54.3 °F 45.1 °F 29.89 in WSW 13.0 mph 23.0 mph 71 % 0.00 in 0 W/m2
07:09 54.1 °F 45.3 °F 29.89 in WSW 13.0 mph 23.0 mph 72 % 0.00 in 0 W/m2
07:14 54.1 °F 45.3 °F 29.89 in WSW 15.0 mph 27.0 mph 72 % 0.00 in 0 W/m2
07:19 54.1 °F 45.7 °F 29.89 in WSW 15.0 mph 27.0 mph 73 % 0.00 in 0 W/m2
07:24 54.0 °F 45.9 °F 29.89 in WSW 13.0 mph 23.0 mph 74 % 0.00 in 0 W/m2
07:29 53.8 °F 45.7 °F 29.90 in WSW 13.0 mph 23.0 mph 74 % 0.00 in 0 W/m2
07:34 53.6 °F 45.9 °F 29.90 in WSW 11.0 mph 19.0 mph 75 % 0.00 in 5 W/m2
07:39 53.4 °F 45.7 °F 29.91 in WSW 10.0 mph 19.0 mph 75 % 0.00 in 7 W/m2
07:44 53.2 °F 45.9 °F 29.90 in WSW 11.0 mph 20.0 mph 76 % 0.00 in 9 W/m2
07:49 53.2 °F 45.9 °F 29.90 in WSW 11.0 mph 20.0 mph 76 % 0.00 in 14 W/m2
07:54 53.2 °F 45.9 °F 29.90 in WSW 11.0 mph 20.0 mph 76 % 0.00 in 18 W/m2
07:59 53.2 °F 45.5 °F 29.90 in WSW 13.0 mph 22.0 mph 75 % 0.00 in 25 W/m2
08:04 53.4 °F 45.7 °F 29.91 in WSW 14.0 mph 25.0 mph 75 % 0.00 in 35 W/m2
08:09 53.4 °F 45.7 °F 29.91 in WSW 13.0 mph 25.0 mph 75 % 0.00 in 51 W/m2
08:14 53.4 °F 46.0 °F 29.92 in WSW 13.0 mph 21.0 mph 76 % 0.00 in 62 W/m2
08:19 53.4 °F 46.0 °F 29.92 in WSW 12.0 mph 21.0 mph 76 % 0.00 in 72 W/m2
08:24 53.6 °F 45.9 °F 29.92 in WSW 12.0 mph 24.0 mph 75 % 0.00 in 84 W/m2
08:30 53.6 °F 45.5 °F 29.92 in WSW 13.0 mph 26.0 mph 74 % 0.00 in 90 W/m2
08:35 53.8 °F 45.7 °F 29.92 in WSW 14.0 mph 26.0 mph 74 % 0.00 in 109 W/m2
08:40 54.0 °F 45.5 °F 29.92 in WSW 15.0 mph 26.0 mph 73 % 0.00 in 118 W/m2
08:45 54.0 °F 45.5 °F 29.92 in WSW 13.0 mph 23.0 mph 73 % 0.00 in 132 W/m2
08:50 54.1 °F 45.7 °F 29.92 in WSW 14.0 mph 25.0 mph 73 % 0.00 in 148 W/m2
08:55 54.1 °F 45.3 °F 29.92 in WSW 17.0 mph 33.0 mph 72 % 0.00 in 167 W/m2
09:00 54.3 °F 45.5 °F 29.92 in WSW 17.0 mph 33.0 mph 72 % 0.00 in 174 W/m2
09:10 54.7 °F 45.8 °F 29.92 in WSW 18.0 mph 31.0 mph 72 % 0.00 in 190 W/m2
09:15 54.7 °F 45.8 °F 29.92 in WSW 18.0 mph 32.0 mph 72 % 0.00 in 204 W/m2
09:20 54.9 °F 45.6 °F 29.92 in WSW 20.0 mph 32.0 mph 71 % 0.00 in 202 W/m2
09:25 55.0 °F 46.2 °F 29.93 in WSW 19.0 mph 40.0 mph 72 % 0.00 in 202 W/m2
09:30 55.2 °F 46.0 °F 29.92 in WSW 18.0 mph 40.0 mph 71 % 0.00 in 237 W/m2
09:35 55.2 °F 46.3 °F 29.92 in WSW 17.0 mph 30.0 mph 72 % 0.00 in 246 W/m2
09:40 55.4 °F 46.2 °F 29.93 in WSW 17.0 mph 35.0 mph 71 % 0.00 in 258 W/m2
09:45 55.4 °F 46.2 °F 29.93 in WSW 19.0 mph 35.0 mph 71 % 0.00 in 269 W/m2
09:50 55.6 °F 46.3 °F 29.93 in WSW 19.0 mph 31.0 mph 71 % 0.00 in 274 W/m2
09:55 55.6 °F 46.3 °F 29.93 in WSW 18.0 mph 30.0 mph 71 % 0.00 in 285 W/m2
10:00 55.8 °F 46.5 °F 29.93 in WSW 18.0 mph 30.0 mph 71 % 0.00 in 301 W/m2
10:05 55.8 °F 46.5 °F 29.93 in WSW 16.0 mph 30.0 mph 71 % 0.00 in 313 W/m2
10:10 55.9 °F 46.3 °F 29.93 in WSW 17.0 mph 30.0 mph 70 % 0.00 in 325 W/m2
10:15 55.9 °F 46.3 °F 29.93 in WSW 19.0 mph 30.0 mph 70 % 0.00 in 332 W/m2
10:20 56.1 °F 46.5 °F 29.94 in WSW 17.0 mph 30.0 mph 70 % 0.00 in 345 W/m2
10:25 56.3 °F 46.3 °F 29.93 in WSW 16.0 mph 29.0 mph 69 % 0.00 in 360 W/m2
10:30 56.5 °F 46.4 °F 29.94 in WSW 18.0 mph 29.0 mph 69 % 0.00 in 367 W/m2
10:35 56.5 °F 46.4 °F 29.94 in WSW 19.0 mph 32.0 mph 69 % 0.00 in 374 W/m2
10:40 56.5 °F 46.0 °F 29.94 in WSW 19.0 mph 32.0 mph 68 % 0.00 in 397 W/m2
10:45 56.7 °F 46.6 °F 29.94 in WSW 18.0 mph 31.0 mph 69 % 0.00 in 418 W/m2
10:50 56.7 °F 46.6 °F 29.94 in WSW 17.0 mph 29.0 mph 69 % 0.00 in 424 W/m2
10:55 56.8 °F 46.0 °F 29.94 in WSW 19.0 mph 31.0 mph 67 % 0.00 in 355 W/m2
11:00 57.0 °F 46.6 °F 29.94 in WSW 18.0 mph 31.0 mph 68 % 0.00 in 473 W/m2
11:05 57.6 °F 46.7 °F 29.95 in WSW 16.0 mph 34.0 mph 67 % 0.00 in 446 W/m2
11:10 57.0 °F 45.8 °F 29.94 in WSW 18.0 mph 34.0 mph 66 % 0.00 in 439 W/m2
11:15 57.0 °F 45.4 °F 29.95 in WSW 19.0 mph 31.0 mph 65 % 0.00 in 454 W/m2
11:20 57.0 °F 45.0 °F 29.95 in WSW 19.0 mph 34.0 mph 64 % 0.00 in 455 W/m2
11:25 57.2 °F 45.5 °F 29.95 in WSW 19.0 mph 34.0 mph 65 % 0.00 in 483 W/m2
11:31 57.6 °F 45.9 °F 29.96 in WSW 17.0 mph 30.0 mph 65 % 0.00 in 499 W/m2
11:36 57.6 °F 45.9 °F 29.96 in WSW 16.0 mph 28.0 mph 65 % 0.00 in 496 W/m2
11:41 57.4 °F 45.7 °F 29.96 in WSW 15.0 mph 25.0 mph 65 % 0.00 in 135 W/m2
11:46 57.4 °F 45.7 °F 29.95 in WSW 13.0 mph 24.0 mph 65 % 0.00 in 483 W/m2
11:51 57.4 °F 45.7 °F 29.96 in WSW 15.0 mph 29.0 mph 65 % 0.00 in 86 W/m2
11:56 57.0 °F 45.4 °F 29.96 in WSW 18.0 mph 29.0 mph 65 % 0.00 in 541 W/m2
12:01 57.0 °F 45.4 °F 29.96 in WSW 19.0 mph 31.0 mph 65 % 0.00 in 457 W/m2
12:06 57.4 °F 45.7 °F 29.96 in WSW 18.0 mph 31.0 mph 65 % 0.00 in 207 W/m2
12:11 57.2 °F 45.1 °F 29.96 in WSW 19.0 mph 32.0 mph 64 % 0.00 in 93 W/m2
12:16 57.0 °F 45.4 °F 29.96 in WSW 19.0 mph 32.0 mph 65 % 0.00 in 220 W/m2
12:21 57.0 °F 45.4 °F 29.97 in WSW 18.0 mph 32.0 mph 65 % 0.00 in 220 W/m2
12:26 56.8 °F 45.6 °F 29.97 in WSW 17.0 mph 32.0 mph 66 % 0.00 in 123 W/m2
12:31 57.0 °F 45.8 °F 29.97 in WSW 16.0 mph 27.0 mph 66 % 0.00 in 427 W/m2
12:36 57.7 °F 46.0 °F 29.97 in West 17.0 mph 33.0 mph 65 % 0.00 in 656 W/m2
12:41 58.5 °F 45.9 °F 29.98 in WSW 16.0 mph 33.0 mph 63 % 0.00 in 656 W/m2
12:46 58.3 °F 45.3 °F 29.97 in WSW 15.0 mph 28.0 mph 62 % 0.00 in 195 W/m2
12:51 57.7 °F 45.2 °F 29.97 in WSW 18.0 mph 30.0 mph 63 % 0.00 in 174 W/m2
12:56 57.7 °F 45.6 °F 29.97 in WSW 17.0 mph 30.0 mph 64 % 0.00 in 545 W/m2
13:01 58.1 °F 46.0 °F 29.98 in WSW 15.0 mph 28.0 mph 64 % 0.00 in 146 W/m2
13:06 58.1 °F 45.6 °F 29.98 in WSW 15.0 mph 25.0 mph 63 % 0.00 in 120 W/m2
13:11 57.7 °F 45.2 °F 29.98 in WSW 15.0 mph 23.0 mph 63 % 0.00 in 135 W/m2
13:16 57.7 °F 45.6 °F 29.98 in WSW 15.0 mph 28.0 mph 64 % 0.00 in 577 W/m2
13:21 57.9 °F 45.0 °F 29.98 in WSW 17.0 mph 30.0 mph 62 % 0.00 in 211 W/m2
13:26 57.9 °F 45.0 °F 29.98 in WSW 19.0 mph 30.0 mph 62 % 0.00 in 563 W/m2
13:31 57.7 °F 44.4 °F 29.97 in WSW 19.0 mph 33.0 mph 61 % 0.00 in 125 W/m2
13:36 57.6 °F 44.2 °F 29.97 in WSW 18.0 mph 33.0 mph 61 % 0.00 in 114 W/m2
13:41 57.9 °F 45.0 °F 29.97 in WSW 18.0 mph 30.0 mph 62 % 0.00 in 499 W/m2
13:46 58.5 °F 45.5 °F 29.97 in WSW 16.0 mph 26.0 mph 62 % 0.00 in 494 W/m2
13:51 58.8 °F 45.0 °F 29.97 in WSW 15.0 mph 26.0 mph 60 % 0.00 in 517 W/m2
13:56 58.8 °F 45.0 °F 29.97 in WSW 17.0 mph 27.0 mph 60 % 0.00 in 167 W/m2
14:01 59.0 °F 45.6 °F 29.97 in WSW 17.0 mph 27.0 mph 61 % 0.00 in 527 W/m2
14:06 58.6 °F 44.8 °F 29.97 in WSW 17.0 mph 27.0 mph 60 % 0.00 in 153 W/m2
14:11 58.1 °F 45.1 °F 29.97 in WSW 16.0 mph 27.0 mph 62 % 0.00 in 132 W/m2
14:16 57.9 °F 45.4 °F 29.97 in West 14.0 mph 25.0 mph 63 % 0.00 in 378 W/m2
14:21 58.1 °F 45.6 °F 29.97 in West 13.0 mph 25.0 mph 63 % 0.00 in 271 W/m2
14:26 58.1 °F 45.1 °F 29.97 in West 14.0 mph 26.0 mph 62 % 0.00 in 167 W/m2
14:29 57.9 °F 44.5 °F 29.97 in West 15.0 mph 32.0 mph 61 % 0.00 in 188 W/m2
14:34 57.9 °F 44.5 °F 29.97 in West 17.0 mph 32.0 mph 61 % 0.00 in 464 W/m2
14:39 58.3 °F 44.4 °F 29.97 in West 18.0 mph 27.0 mph 60 % 0.00 in 128 W/m2
14:44 57.9 °F 44.5 °F 29.97 in West 17.0 mph 27.0 mph 61 % 0.00 in 100 W/m2
14:49 58.3 °F 44.9 °F 29.97 in West 17.0 mph 30.0 mph 61 % 0.00 in 127 W/m2
14:54 58.3 °F 45.3 °F 29.97 in West 16.0 mph 30.0 mph 62 % 0.00 in 385 W/m2
14:59 58.6 °F 45.7 °F 29.98 in West 13.0 mph 26.0 mph 62 % 0.00 in 374 W/m2
15:04 58.8 °F 45.8 °F 29.98 in West 12.0 mph 23.0 mph 62 % 0.00 in 369 W/m2
15:09 59.2 °F 46.2 °F 29.98 in West 11.0 mph 23.0 mph 62 % 0.00 in 359 W/m2
15:14 59.2 °F 46.2 °F 29.98 in West 11.0 mph 22.0 mph 62 % 0.00 in 350 W/m2
15:19 59.4 °F 45.9 °F 29.98 in West 10.0 mph 22.0 mph 61 % 0.00 in 341 W/m2
15:24 59.4 °F 45.0 °F 29.98 in West 11.0 mph 24.0 mph 59 % 0.00 in 329 W/m2
15:29 59.2 °F 45.3 °F 29.98 in West 13.0 mph 24.0 mph 60 % 0.00 in 316 W/m2
15:34 59.4 °F 45.5 °F 29.97 in WSW 10.0 mph 24.0 mph 60 % 0.00 in 285 W/m2
15:39 59.4 °F 45.0 °F 29.98 in WSW 9.0 mph 20.0 mph 59 % 0.00 in 283 W/m2
15:44 59.5 °F 45.6 °F 29.98 in WSW 8.0 mph 20.0 mph 60 % 0.00 in 304 W/m2
15:49 59.7 °F 45.4 °F 29.98 in WSW 5.0 mph 13.0 mph 59 % 0.00 in 315 W/m2
15:54 60.1 °F 45.2 °F 29.98 in West 6.0 mph 16.0 mph 58 % 0.00 in 292 W/m2
15:59 60.1 °F 44.8 °F 29.98 in West 9.0 mph 19.0 mph 57 % 0.00 in 271 W/m2
16:04 59.5 °F 43.3 °F 29.98 in West 12.0 mph 25.0 mph 55 % 0.00 in 237 W/m2
16:09 59.2 °F 43.5 °F 29.98 in West 12.0 mph 25.0 mph 56 % 0.00 in 214 W/m2
16:14 58.8 °F 43.6 °F 29.98 in West 11.0 mph 19.0 mph 57 % 0.00 in 135 W/m2
16:19 58.5 °F 43.7 °F 29.98 in WSW 11.0 mph 19.0 mph 58 % 0.00 in 149 W/m2
16:24 58.1 °F 43.4 °F 29.98 in West 11.0 mph 19.0 mph 58 % 0.00 in 139 W/m2
16:29 57.9 °F 43.7 °F 29.98 in West 11.0 mph 20.0 mph 59 % 0.00 in 142 W/m2
16:34 57.7 °F 43.9 °F 29.98 in WSW 10.0 mph 20.0 mph 60 % 0.00 in 93 W/m2
16:39 57.6 °F 43.8 °F 29.98 in WSW 10.0 mph 19.0 mph 60 % 0.00 in 81 W/m2
16:44 57.4 °F 43.2 °F 29.98 in WSW 10.0 mph 19.0 mph 59 % 0.00 in 70 W/m2
16:49 57.0 °F 42.8 °F 29.98 in WSW 10.0 mph 16.0 mph 59 % 0.00 in 67 W/m2
16:54 56.8 °F 42.7 °F 29.98 in WSW 10.0 mph 15.0 mph 59 % 0.00 in 63 W/m2
16:59 56.8 °F 43.1 °F 29.98 in West 9.0 mph 14.0 mph 60 % 0.00 in 62 W/m2
17:04 56.7 °F 42.9 °F 29.98 in West 8.0 mph 15.0 mph 60 % 0.00 in 56 W/m2
17:09 56.5 °F 42.8 °F 29.98 in West 8.0 mph 16.0 mph 60 % 0.00 in 47 W/m2
17:14 56.1 °F 42.4 °F 29.98 in West 8.0 mph 16.0 mph 60 % 0.00 in 46 W/m2
17:19 55.9 °F 42.7 °F 29.98 in West 7.0 mph 12.0 mph 61 % 0.00 in 40 W/m2
17:24 55.8 °F 42.5 °F 29.98 in West 7.0 mph 10.0 mph 61 % 0.00 in 33 W/m2
17:29 55.6 °F 42.3 °F 29.98 in West 6.0 mph 10.0 mph 61 % 0.00 in 28 W/m2
17:34 55.4 °F 42.6 °F 29.98 in West 6.0 mph 10.0 mph 62 % 0.00 in 25 W/m2
17:39 55.2 °F 42.8 °F 29.98 in WNW 5.0 mph 9.0 mph 63 % 0.00 in 18 W/m2
17:44 55.0 °F 42.7 °F 29.99 in WNW 2.0 mph 6.0 mph 63 % 0.00 in 12 W/m2
17:49 54.9 °F 42.9 °F 29.99 in Calm   5.0 mph 64 % 0.00 in 9 W/m2
17:54 54.5 °F 43.0 °F 29.99 in Calm   4.0 mph 65 % 0.00 in 7 W/m2
17:59 54.1 °F 42.6 °F 29.99 in WNW 1.0 mph 4.0 mph 65 % 0.00 in 5 W/m2
18:04 54.0 °F 42.9 °F 29.99 in WNW 2.0 mph 6.0 mph 66 % 0.00 in 0 W/m2
18:09 53.8 °F 42.7 °F 29.99 in WNW 3.0 mph 6.0 mph 66 % 0.00 in 0 W/m2
18:14 53.4 °F 42.7 °F 29.99 in WNW 2.0 mph 6.0 mph 67 % 0.00 in 5 W/m2
18:19 53.4 °F 42.7 °F 29.99 in WNW 1.0 mph 5.0 mph 67 % 0.00 in 0 W/m2
18:20 53.4 °F 42.7 °F 29.99 in WNW 1.0 mph 5.0 mph 67 % 0.00 in 0 W/m2
18:25 53.2 °F 42.9 °F 29.99 in West 2.0 mph 6.0 mph 68 % 0.00 in 0 W/m2
18:30 53.1 °F 43.2 °F 29.99 in West 4.0 mph 8.0 mph 69 % 0.00 in 0 W/m2
18:35 52.9 °F 43.4 °F 29.99 in WNW 3.0 mph 8.0 mph 70 % 0.00 in 0 W/m2
18:40 52.5 °F 43.4 °F 29.99 in West 4.0 mph 7.0 mph 71 % 0.00 in 0 W/m2
18:45 52.3 °F 43.2 °F 29.99 in West 4.0 mph 7.0 mph 71 % 0.00 in 0 W/m2
18:50 52.3 °F 43.6 °F 29.99 in West 2.0 mph 7.0 mph 72 % 0.00 in 0 W/m2
18:55 52.2 °F 43.4 °F 29.99 in WSW 1.0 mph 6.0 mph 72 % 0.00 in 0 W/m2
19:00 52.0 °F 43.2 °F 29.99 in West 3.0 mph 8.0 mph 72 % 0.00 in 0 W/m2
19:05 51.8 °F 43.4 °F 29.99 in WSW 5.0 mph 8.0 mph 73 % 0.00 in 0 W/m2
19:10 51.6 °F 43.6 °F 29.99 in WSW 4.0 mph 8.0 mph 74 % 0.00 in 0 W/m2
19:15 51.6 °F 43.6 °F 29.99 in WSW 2.0 mph 8.0 mph 74 % 0.00 in 0 W/m2
19:20 51.4 °F 43.4 °F 29.99 in WSW 2.0 mph 6.0 mph 74 % 0.00 in 0 W/m2
19:25 51.3 °F 43.3 °F 29.99 in West 3.0 mph 6.0 mph 74 % 0.00 in 0 W/m2
19:30 51.3 °F 43.6 °F 29.99 in West 3.0 mph 6.0 mph 75 % 0.00 in 0 W/m2
19:35 51.1 °F 43.4 °F 29.99 in West 2.0 mph 6.0 mph 75 % 0.00 in 0 W/m2
19:40 50.9 °F 43.3 °F 29.99 in WNW 1.0 mph 6.0 mph 75 % 0.00 in 0 W/m2
19:45 50.7 °F 43.4 °F 29.99 in Calm   4.0 mph 76 % 0.00 in 0 W/m2
19:50 50.7 °F 43.8 °F 29.98 in NW 1.0 mph 4.0 mph 77 % 0.00 in 0 W/m2
19:56 50.7 °F 43.8 °F 29.99 in Calm   3.0 mph 77 % 0.00 in 0 W/m2
20:01 50.5 °F 43.6 °F 29.99 in Calm   1.0 mph 77 % 0.00 in 0 W/m2
20:06 50.2 °F 43.6 °F 29.99 in Calm   1.0 mph 78 % 0.00 in 0 W/m2
20:11 50.2 °F 43.6 °F 29.99 in NW 1.0 mph 4.0 mph 78 % 0.00 in 0 W/m2
20:16 50.2 °F 43.6 °F 29.98 in WNW 3.0 mph 6.0 mph 78 % 0.00 in 0 W/m2
20:21 50.2 °F 43.6 °F 29.98 in West 5.0 mph 7.0 mph 78 % 0.00 in 0 W/m2
20:26 50.2 °F 43.6 °F 29.98 in WSW 5.0 mph 8.0 mph 78 % 0.00 in 0 W/m2
20:31 50.0 °F 43.4 °F 29.98 in West 3.0 mph 8.0 mph 78 % 0.00 in 0 W/m2
20:36 49.8 °F 43.6 °F 29.99 in West 1.0 mph 4.0 mph 79 % 0.00 in 0 W/m2
20:41 49.6 °F 43.4 °F 29.98 in WNW 1.0 mph 6.0 mph 79 % 0.00 in 0 W/m2
20:46 49.6 °F 43.4 °F 29.98 in WNW 2.0 mph 6.0 mph 79 % 0.00 in 0 W/m2
20:51 49.6 °F 43.7 °F 29.98 in WNW 2.0 mph 5.0 mph 80 % 0.00 in 0 W/m2
20:56 49.5 °F 43.5 °F 29.99 in WNW 2.0 mph 5.0 mph 80 % 0.00 in 0 W/m2
21:01 49.5 °F 43.5 °F 29.99 in NW 2.0 mph 6.0 mph 80 % 0.00 in 0 W/m2
21:06 49.5 °F 43.5 °F 29.99 in NW 3.0 mph 6.0 mph 80 % 0.00 in 0 W/m2
21:11 49.6 °F 43.7 °F 29.99 in WNW 3.0 mph 6.0 mph 80 % 0.00 in 0 W/m2
21:16 49.8 °F 43.9 °F 29.99 in WNW 2.0 mph 5.0 mph 80 % 0.00 in 0 W/m2
21:21 49.8 °F 43.9 °F 29.99 in Calm   5.0 mph 80 % 0.00 in 0 W/m2
21:26 49.6 °F 43.7 °F 29.99 in Calm   2.0 mph 80 % 0.00 in 0 W/m2
21:31 49.5 °F 43.5 °F 29.99 in Calm     80 % 0.00 in 0 W/m2
21:36 49.5 °F 43.9 °F 29.99 in West 1.0 mph 5.0 mph 81 % 0.00 in 0 W/m2
21:39 49.6 °F 44.0 °F 29.99 in West 2.0 mph 5.0 mph 81 % 0.00 in 0 W/m2
21:44 49.6 °F 44.0 °F 29.98 in West 3.0 mph 5.0 mph 81 % 0.00 in 0 W/m2
21:49 49.5 °F 43.9 °F 29.99 in WNW 1.0 mph 5.0 mph 81 % 0.00 in 0 W/m2
21:54 49.3 °F 44.0 °F 29.99 in NNW 1.0 mph 3.0 mph 82 % 0.00 in 0 W/m2
21:59 49.3 °F 44.0 °F 29.99 in Calm   2.0 mph 82 % 0.00 in 0 W/m2
22:04 49.3 °F 44.0 °F 30.00 in Calm   4.0 mph 82 % 0.00 in 0 W/m2
22:09 49.3 °F 44.0 °F 30.00 in NNW 1.0 mph 4.0 mph 82 % 0.00 in 0 W/m2
22:14 49.3 °F 44.0 °F 30.00 in NW 1.0 mph 4.0 mph 82 % 0.00 in 0 W/m2
22:19 49.3 °F 43.7 °F 30.00 in Calm   4.0 mph 81 % 0.00 in 0 W/m2
22:24 49.3 °F 43.7 °F 30.00 in Calm   5.0 mph 81 % 0.00 in 0 W/m2
22:29 49.3 °F 44.0 °F 29.99 in WNW 2.0 mph 5.0 mph 82 % 0.00 in 0 W/m2
22:34 49.3 °F 44.0 °F 30.00 in WNW 3.0 mph 5.0 mph 82 % 0.00 in 0 W/m2
22:39 49.3 °F 44.0 °F 29.99 in West 1.0 mph 5.0 mph 82 % 0.00 in 0 W/m2
22:44 49.3 °F 44.0 °F 30.00 in Calm   2.0 mph 82 % 0.00 in 0 W/m2
22:49 49.3 °F 44.0 °F 29.99 in Calm     82 % 0.00 in 0 W/m2
22:54 49.3 °F 44.0 °F 30.00 in Calm   1.0 mph 82 % 0.00 in 0 W/m2
22:59 49.3 °F 44.0 °F 30.00 in Calm   3.0 mph 82 % 0.00 in 0 W/m2
23:04 49.3 °F 44.0 °F 29.99 in WNW 2.0 mph 6.0 mph 82 % 0.00 in 0 W/m2
23:09 49.3 °F 44.0 °F 29.99 in WNW 3.0 mph 6.0 mph 82 % 0.00 in 0 W/m2
23:14 49.5 °F 44.2 °F 29.99 in WNW 1.0 mph 5.0 mph 82 % 0.00 in 0 W/m2
23:19 49.5 °F 44.2 °F 30.00 in Calm   2.0 mph 82 % 0.00 in 0 W/m2
23:24 49.5 °F 44.2 °F 29.99 in Calm     82 % 0.00 in 0 W/m2
23:29 49.3 °F 44.0 °F 29.99 in Calm     82 % 0.00 in 0 W/m2
23:34 49.3 °F 44.0 °F 29.99 in Calm     82 % 0.00 in 0 W/m2
23:39 48.9 °F 44.0 °F 29.99 in Calm     83 % 0.00 in 0 W/m2
23:44 48.9 °F 44.0 °F 29.99 in Calm     83 % 0.00 in 0 W/m2
23:49 48.7 °F 43.8 °F 29.99 in Calm     83 % 0.00 in 0 W/m2
23:54 48.7 °F 44.1 °F 30.00 in Calm     84 % 0.00 in 0 W/m2
23:59 48.7 °F 44.1 °F 30.00 in Calm     84 % 0.00 in 0 W/m2
Delerius-Weather
Compliments of Weather Underground - 2.25 mb

Data updates at regular intervals.